This is the latest recevied weather packets stored in our database for station/object K3RUP-1. If no packets are shown the sender has not sent any weather packets the latest 10 day(s).
| Time | Temp. | Humidity | Pressure | Rain* | Wind** | Luminosity | Snow |
|---|---|---|---|---|---|---|---|
| 1788452817 | 26.11° C | 95% | 1015.8 hPa | 0 mm | - | 71 W/m² | - |
| 1788452513 | 26.11° C | 94% | 1015.9 hPa | 0 mm | - | 77 W/m² | - |
| 1788452209 | 26.11° C | 94% | 1016.4 hPa | 0 mm | - | 80 W/m² | - |
| 1788451903 | 26.11° C | 94% | 1016.8 hPa | 0 mm | - | 78 W/m² | - |
| 1788451599 | 26.11° C | 94% | 1017.2 hPa | 0 mm | - | 45 W/m² | - |
| 1788451293 | 26.11° C | 94% | 1017.3 hPa | 0 mm | - | 57 W/m² | - |
| 1788450992 | 26.11° C | 94% | 1017.2 hPa | 0 mm | - | 64 W/m² | - |
| 1788450687 | 26.11° C | 94% | 1017.4 hPa | 0 mm | - | 44 W/m² | - |
| 1788450383 | 26.67° C | 94% | 1017.3 hPa | 0 mm | - | 62 W/m² | - |
| 1788450079 | 26.67° C | 94% | 1016.6 hPa | 0 mm | - | 152 W/m² | - |
| 1788449775 | 26.67° C | 94% | 1016.4 hPa | 0 mm | - | 121 W/m² | - |
| 1788449470 | 26.11° C | 94% | 1016.6 hPa | 0 mm | - | 175 W/m² | - |
| 1788449166 | 26.67° C | 95% | 1016.1 hPa | 0 mm | - | 216 W/m² | - |
| 1788448863 | 26.11° C | 96% | 1016.3 hPa | 0 mm | - | 206 W/m² | - |
| 1788448561 | 25.56° C | 97% | 1016.3 hPa | 0 mm | - | 248 W/m² | - |
| 1788448256 | 25.56° C | 98% | 1016.1 hPa | 0 mm | - | 168 W/m² | - |
| 1788447950 | 25.56° C | 99% | 1016.1 hPa | 0 mm | - | 221 W/m² | - |
| 1788447646 | 25° C | 99% | 1016.1 hPa | 0 mm | - | 195 W/m² | - |
| 1788447345 | 25° C | 99% | 1015.8 hPa | 0 mm | - | 203 W/m² | - |
| 1788447041 | 25° C | 99% | 1015.6 hPa | 0 mm | - | 137 W/m² | - |
| 1788446740 | 25° C | 99% | 1015.7 hPa | 0 mm | - | 157 W/m² | - |
| 1788446436 | 25° C | 99% | 1015.8 hPa | 0 mm | - | 151 W/m² | - |
| 1788446132 | 25° C | 99% | 1015.6 hPa | 0 mm | - | 163 W/m² | - |
| 1788445827 | 25° C | 99% | 1015.5 hPa | 0 mm | - | 162 W/m² | - |
| 1788445523 | 25° C | 99% | 1015.7 hPa | 0 mm | - | 212 W/m² | - |
* Rain latest hour (hover to see other rain measurements)
** Current wind speed in m/s (hover to see current wind gust speed)